#timestamp,LO_Frequency,Hit,StdDev 
1591387215.5,286046999.2,N
1591387235.3,286046997.1,N
1591387255.1,286046997.0,N
1591387275.9,286046997.6,N
1591387295.7,286046995.0,N
1591387315.6,286046997.5,N
1591387335.4,286046999.2,N
1591387355.2,286046999.4,N
1591387375.1,286046998.9,N
1591387376.0,286046998.9,N
1591387395.8,286046999.3,N
1591387415.6,286046998.8,N
1591387435.5,286046997.5,N
1591387455.3,286046995.1,N
1591387475.2,286046996.7,N
1591387495.9,286046999.3,N
1591387515.7,286046999.4,N
1591387535.6,286046996.6,N
1591387555.4,286046999.3,N
1591387575.2,286046996.8,N
1591387595.1,286046998.8,N
1591387596.0,286046998.8,N
1591387615.8,286046998.9,N
1591387635.7,286046999.0,N
1591387655.5,286046999.2,N
1591387675.3,286046998.1,N
1591387695.2,286046998.7,N
1591387715.0,286047000.7,N
1591387715.9,286047000.7,N
1591387735.7,286047001.2,N
1591387755.6,286047001.2,N
1591387775.4,286046998.7,N
1591387795.3,286046998.9,N
1591387815.1,286046998.8,N
1591387816.0,286046998.8,N
1591387835.8,286046998.2,N
1591387855.7,286047001.0,N
1591387875.5,286047000.7,N
1591387895.3,286046998.2,N
1591387915.2,286047000.6,N
1591387935.0,286047000.0,N
1591387935.9,286047000.0,N
1591387955.8,286047001.2,N
1591387975.6,286046998.5,N
1591387995.4,286046998.9,N
1591388015.3,286046999.0,N
1591388035.1,286046999.3,N
1591388055.8,286047001.1,N
1591388075.7,286046998.6,N
1591388095.5,286046999.1,N
1591388115.4,286046996.8,Y
1591388135.2,286046997.1,P
1591388155.0,286046996.6,N
1591388155.9,286046996.6,N
1591388175.8,286046999.6,N
1591388195.6,286046997.5,N
1591388215.5,286046999.5,N
1591388235.3,286046998.4,N
1591388255.1,286046998.6,N
1591388275.9,286046998.2,N
1591388295.7,286046998.3,N
1591388315.5,286046999.2,N
1591388335.4,286046999.1,N
1591388355.2,286046997.0,N
1591388375.0,286046998.7,N
1591388376.0,286046998.7,N
1591388395.8,286046999.1,N
1591388415.6,286047000.9,N
1591388435.5,286047000.6,N
1591388455.3,286047001.0,N
1591388475.1,286047000.7,N
1591388495.9,286046998.6,N
1591388515.7,286047000.9,N
1591388535.5,286047001.0,N
1591388555.4,286047000.9,N
1591388575.2,286047000.5,N
1591388595.1,286047002.7,N
1591388596.0,286047002.7,N
1591388615.8,286047002.1,N
1591388635.6,286047002.5,N
1591388655.5,286047002.1,N
1591388675.3,286047002.6,N
1591388695.1,286047002.8,N
1591388715.9,286047001.9,N
1591388735.7,286047001.3,N
1591388755.6,286047001.4,N
1591388775.4,286047001.7,N
1591388795.2,286047001.7,N
1591388815.1,286047004.0,N
1591388816.0,286047004.0,N
1591388835.8,286047002.4,N
1591388855.6,286046999.8,N
1591388875.5,286047000.6,N
1591388895.3,286047000.1,N
1591388915.2,286047002.8,N
1591388935.9,286047004.3,Y
1591388955.7,286047000.1,P
1591388975.6,286046998.3,N
1591388995.4,286047000.4,N
1591389015.3,286047002.7,N
1591389035.1,286046999.8,N
1591389036.0,286046999.8,N
1591389055.8,286046999.8,N
1591389075.7,286046999.7,N
1591389095.5,286046999.8,N
1591389115.3,286047002.1,N
1591389135.2,286047002.1,N
1591389155.0,286047002.0,N
1591389155.9,286047002.0,N
1591389175.8,286047002.3,N
1591389195.6,286047002.6,N
1591389215.4,286047002.4,N
1591389235.3,286047001.8,N
1591389255.1,286047001.4,N
1591389275.8,286047003.7,N
1591389295.7,286047004.0,N
1591389315.5,286047002.9,N
1591389335.4,286047004.4,Y
1591389355.2,286047002.3,P
1591389375.0,286047002.3,P
1591389375.9,286047002.3,P
1591389395.8,286047000.0,N
1591389415.6,286047000.1,N
1591389435.4,286047002.0,N
1591389455.3,286047002.6,N
1591389475.1,286047001.9,N
1591389495.9,286046999.8,N
1591389515.7,286046999.7,N
1591389535.5,286047001.9,N
1591389555.4,286047001.8,N
1591389575.2,286047001.9,N
1591389595.0,286047002.8,N
1591389595.9,286047002.8,N
1591389615.8,286047001.7,N
1591389635.6,286047001.9,N
1591389655.5,286047002.4,N
1591389675.3,286047002.5,N
1591389695.1,286047001.3,N
1591389715.9,286047002.2,N
1591389735.7,286047000.4,N
1591389755.5,286047000.3,N
1591389805.4,286046999.8,E
1591389815.3,286046999.7,N
1591389835.2,286047001.9,P
1591389855.9,286047002.1,N
1591389875.7,286046999.7,N
1591389895.6,286046999.7,N
1591389915.4,286047000.0,N
1591389935.2,286047002.2,N
1591389955.1,286047001.6,N
1591389956.0,286047001.6,N
1591389975.8,286047001.5,N
1591389995.7,286047001.7,N
1591390015.5,286047003.8,Y
1591390035.3,286047004.3,P
1591390055.2,286047004.3,N
1591390075.0,286047003.1,N
1591390075.9,286047003.1,N
1591390095.7,286047003.3,N
1591390115.6,286047003.9,Y
1591390135.4,286046998.2,P
1591390155.3,286046998.1,N
1591390175.1,286046998.9,N
1591390195.8,286046998.6,N
1591390215.7,286046999.1,N
1591390235.5,286046999.2,N
1591390255.4,286046999.3,N
1591390275.2,286046998.5,N
1591390295.0,286046998.8,N
1591390295.9,286046998.8,N
1591390315.8,286046999.2,N
1591390335.6,286046998.7,N
1591390355.4,286046998.2,N
1591390375.3,286047001.2,N
1591390395.1,286046998.4,N
1591390415.9,286046998.4,N
1591390435.7,286046998.7,N
1591390455.5,286047000.8,N
1591390475.4,286047001.1,N
1591390495.2,286046998.1,N
1591390515.1,286047001.0,N
1591390516.0,286047001.0,N
1591390535.8,286047001.2,N
1591390555.6,286047000.4,N
1591390575.5,286047000.6,N
1591390595.3,286047001.0,N
1591390615.2,286047001.1,N
1591390635.9,286047000.5,N
1591390655.7,286047011.9,Y
1591390675.6,286047000.6,P
1591390695.4,286046999.8,N
1591390715.2,286047000.2,N
1591390735.1,286047000.2,N
1591390736.0,286047000.2,N
1591390755.8,286047000.0,N
1591390775.7,286047001.2,Y
1591390795.5,286047000.6,P
